FW5311 Weather Reports


time (UTC)temp
F
wind
direction
speed
knots
gust
knots
rain 1hr
in
rain 24hr
in
rain mn
in
humidity
%
barometer
mb
20260906204554 81 0 1.7 5.2 0.00 0.00 0.00 75 1014.7
20260906203053 81 69 0.9 5.2 0.00 0.00 0.00 75 1014.6
20260906201549 81 109 1.7 8.7 0.00 0.00 0.00 75 1014.6
20260906200047 82 97 3.5 8.7 0.00 0.00 0.00 73 1014.2
20260906194554 82 130 3.5 8.7 0.00 0.00 0.00 72 1014.1
20260906193051 82 140 2.6 8.7 0.00 0.00 0.00 73 1014.3
20260906191556 81 94 1.7 8.7 0.00 0.00 0.00 74 1014.4
20260906190050 80 122 3.5 6.1 0.00 0.00 0.00 74 1014.7
20260906184601 81 128 3.5 8.7 0.00 0.00 0.00 74 1015.0
20260906183052 81 95 6.1 9.6 0.00 0.00 0.00 72 1015.2
20260906181551 82 85 1.7 7.8 0.00 0.00 0.00 72 1015.3
20260906180112 81 136 3.5 7.8 0.00 0.00 0.00 74 1015.6
20260906174556 79 97 0.9 7.8 0.00 0.00 0.00 77 1015.8
20260906173054 80 99 2.6 7.0 0.00 0.00 0.00 75 1015.7
20260906171549 79 109 3.5 6.1 0.00 0.00 0.00 76 1016.0
20260906170059 78 117 4.3 7.8 0.00 0.00 0.00 77 1016.0
20260906164556 77 123 3.5 8.7 0.00 0.00 0.00 79 1016.1
20260906163111 77 106 4.3 10.4 0.00 0.00 0.00 78 1016.4
20260906161549 76 117 5.2 8.7 0.00 0.00 0.00 80 1016.5
20260906160049 74 79 5.2 7.8 0.00 0.00 0.00 82 1016.6
20260906154555 73 129 2.6 6.1 0.00 0.00 0.00 83 1016.9
20260906153052 72 114 2.6 7.0 0.00 0.00 0.00 85 1016.8
20260906151549 71 130 3.5 7.0 0.00 0.00 0.00 86 1016.7
20260906150056 70 180 4.3 7.0 0.00 0.00 0.00 88 1016.8
20260906144552 69 121 3.5 7.8 0.00 0.00 0.00 89 1016.8
20260906143053 68 122 3.5 7.0 0.00 0.00 0.00 91 1016.9
20260906141600 67 156 1.7 5.2 0.00 0.00 0.00 93 1016.7
20260906140105 66 80 1.7 4.3 0.00 0.00 0.00 94 1016.8
20260906134552 65 64 0.9 4.3 0.00 0.00 0.00 96 1016.8
20260906133056 64 5 1.7 5.2 0.00 0.00 0.00 96 1016.7
20260906131615 63 56 0.9 2.6 0.00 0.00 0.00 96 1016.7
20260906130105 62 0 0.0 3.5 0.00 0.00 0.00 96 1016.8
20260906124553 61 0 0.0 2.6 0.00 0.02 0.00 96 1016.7
20260906123101 61 0 0.9 1.7 0.00 0.02 0.00 96 1016.9
20260906121558 60 0 0.0 1.7 0.00 0.02 0.00 96 1016.8
20260906120101 61 103 0.0 2.6 0.00 0.02 0.00 96 1016.8
20260906114553 61 103 0.0 2.6 0.00 0.02 0.00 96 1016.6
20260906113051 61 103 0.9 2.6 0.00 0.02 0.00 96 1016.7
20260906111548 61 0 0.0 1.7 0.00 0.02 0.00 96 1016.8
20260906110056 60 0 0.0 1.7 0.00 0.02 0.00 96 1016.5
20260906104551 60 103 0.9 2.6 0.00 0.02 0.00 96 1016.6
20260906103049 60 98 0.9 2.6 0.00 0.02 0.00 96 1016.5
20260906101550 60 0 0.0 2.6 0.00 0.02 0.00 96 1016.1
20260906100055 60 76 0.0 3.5 0.00 0.02 0.00 96 1016.0
20260906094549 60 76 0.0 1.7 0.00 0.02 0.00 96 1015.8
20260906093056 60 76 0.0 2.6 0.00 0.02 0.00 96 1015.8
20260906091557 60 68 0.0 3.5 0.00 0.02 0.00 96 1015.6
20260906090058 60 93 0.9 3.5 0.00 0.02 0.00 95 1015.8
20260906084555 60 86 0.0 2.6 0.00 0.02 0.00 95 1016.0
20260906083059 60 96 0.9 3.5 0.00 0.02 0.00 95 1016.1
20260906081549 60 5 0.0 2.6 0.00 0.02 0.00 95 1016.2
20260906080059 61 0 0.0 0.0 0.00 0.02 0.00 95 1016.4
20260906074558 60 0 0.0 1.7 0.00 0.02 0.00 95 1016.4
20260906073050 61 0 0.0 1.7 0.00 0.02 0.00 94 1016.3
20260906071600 61 0 0.0 2.6 0.00 0.02 0.00 94 1016.3
20260906070057 62 0 0.0 1.7 0.00 0.02 0.00 94 1016.0
20260906064552 62 5 0.0 2.6 0.00 0.02 0.00 94 1016.2
20260906063052 62 105 0.9 2.6 0.00 0.02 0.00 93 1016.3
20260906061559 63 0 0.0 2.6 0.00 0.02 0.00 93 1016.1
20260906060103 64 0 0.0 2.6 0.00 0.02 0.00 92 1016.2
20260906054552 64 105 0.0 1.7 0.00 0.02 0.00 91 1016.2
20260906053058 65 105 0.9 6.1 0.00 0.02 0.00 91 1016.0
20260906051600 65 94 1.7 6.1 0.00 0.02 0.00 90 1016.1
20260906050059 66 92 3.5 7.0 0.00 0.02 0.00 89 1016.2
20260906044552 66 134 2.6 6.1 0.00 0.02 0.02 89 1016.3
20260906043059 66 105 3.5 6.1 0.00 0.02 0.02 90 1016.1
20260906041558 66 136 5.2 7.8 0.00 0.02 0.02 89 1016.1
20260906040056 67 110 6.1 10.4 0.00 0.02 0.02 87 1016.0
20260906034602 68 126 4.3 8.7 0.00 0.02 0.02 87 1016.0
20260906033050 67 105 3.5 8.7 0.00 0.02 0.02 87 1016.3
20260906031558 67 121 4.3 8.7 0.00 0.02 0.02 86 1016.3
20260906030054 68 99 4.3 7.8 0.00 0.02 0.02 87 1016.5
20260906024600 67 0 0.0 1.7 0.00 0.02 0.02 88 1016.6
20260906023046 67 0 0.0 1.7 0.00 0.02 0.02 88 1016.5
20260906021557 67 0 0.0 1.7 0.00 0.02 0.02 86 1016.3
20260906020048 69 0 0.0 0.9 0.00 0.02 0.02 85 1016.4
20260906014605 69 90 0.0 0.0 0.00 0.02 0.02 85 1016.2
20260906013052 70 0 0.9 3.5 0.00 0.02 0.02 83 1016.2
20260906011603 71 0 0.0 0.0 0.00 0.02 0.02 81 1015.9
20260906010050 73 0 0.0 0.0 0.00 0.02 0.02 79 1015.6
20260906004557 73 0 0.0 1.7 0.00 0.02 0.02 79 1014.9
20260906003053 75 88 2.6 5.2 0.00 0.02 0.02 75 1014.6
20260906001556 75 0 0.0 1.7 0.00 0.02 0.02 74 1014.5
20260906000100 75 0 0.0 0.0 0.00 0.02 0.02 74 1014.6
20260905234556 76 96 0.0 2.6 0.00 0.02 0.02 70 1014.6
20260905233108 77 96 0.9 7.0 0.00 0.02 0.02 68 1014.4
20260905231555 79 107 6.1 10.4 0.00 0.02 0.02 64 1014.1
20260905230051 79 111 7.0 9.6 0.00 0.02 0.02 64 1014.1
20260905224608 80 131 5.2 10.4 0.00 0.02 0.02 63 1014.2
20260905223107 80 131 6.1 11.3 0.00 0.02 0.02 63 1014.2
20260905221557 80 133 5.2 12.2 0.00 0.02 0.02 62 1014.3
20260905220054 80 127 7.8 12.2 0.00 0.02 0.02 64 1014.3
20260905214549 80 133 7.8 12.2 0.00 0.02 0.02 64 1014.4
20260905213050 80 142 7.0 12.2 0.00 0.02 0.02 65 1014.7
20260905211555 81 139 7.8 12.2 0.00 0.02 0.02 65 1014.9
20260905210055 80 126 7.8 12.2 0.00 0.02 0.02 64 1014.7